Time,TemperatureF,DewpointF,PressureIn,WindDirection,WindDirectionDegrees,WindSpeedMPH,WindSpeedGustMPH,Humidity,HourlyPrecipIn,Conditions,Clouds,dailyrainin,SolarRadiationWatts/m^2,SoftwareType,DateUTC
2015-04-26 00:04:00,45.4,41.2,29.54,ENE,67,9.0,9.0,85,0.00,,---,0.53,0.00,VWS V14.01,2015-04-26 04:04:00,
2015-04-26 00:09:00,45.4,41.2,29.54,ENE,76,7.0,9.0,85,0.00,,---,0.00,0.00,VWS V14.01,2015-04-26 04:09:00,
2015-04-26 00:14:00,45.5,41.3,29.55,ENE,76,7.0,9.0,85,0.00,,---,0.00,0.00,VWS V14.01,2015-04-26 04:14:00,
2015-04-26 00:19:00,45.5,41.3,29.55,ENE,67,1.0,2.0,85,0.00,,---,0.00,0.00,VWS V14.01,2015-04-26 04:19:00,
2015-04-26 00:24:00,45.5,41.6,29.54,ENE,67,6.0,6.0,86,0.00,,---,0.00,0.00,VWS V14.01,2015-04-26 04:24:00,
2015-04-26 00:30:00,45.5,41.6,29.55,NE,51,4.0,9.0,86,0.00,,---,0.00,0.00,VWS V14.01,2015-04-26 04:30:00,
2015-04-26 00:35:00,45.4,41.5,29.55,NNE,26,5.0,5.0,86,0.00,,---,0.00,0.00,VWS V14.01,2015-04-26 04:35:00,
2015-04-26 00:45:00,45.3,41.7,29.55,NNE,30,7.0,12.0,87,0.00,,---,0.00,0.00,VWS V14.01,2015-04-26 04:45:00,
2015-04-26 00:50:00,45.2,41.6,29.54,ENE,61,6.0,7.0,87,0.00,,---,0.00,0.00,VWS V14.01,2015-04-26 04:50:00,
2015-04-26 00:55:00,45.1,41.5,29.54,NE,52,4.0,9.0,87,0.00,,---,0.00,0.00,VWS V14.01,2015-04-26 04:55:00,
2015-04-26 01:00:00,45.0,41.4,29.55,NE,51,0.0,4.0,87,0.00,,---,0.00,0.00,VWS V14.01,2015-04-26 05:00:00,
2015-04-26 01:05:00,45.0,41.4,29.55,NNE,26,4.0,10.0,87,0.00,,---,0.00,0.00,VWS V14.01,2015-04-26 05:05:00,
2015-04-26 01:10:00,44.9,41.0,29.56,NNE,20,5.0,10.0,86,0.00,,---,0.00,0.00,VWS V14.01,2015-04-26 05:10:00,
2015-04-26 01:15:00,44.9,41.0,29.56,NNE,24,4.0,12.0,86,0.00,,---,0.00,0.00,VWS V14.01,2015-04-26 05:15:00,
2015-04-26 01:20:00,44.8,40.6,29.56,NNE,22,5.0,6.0,85,0.00,,---,0.00,0.00,VWS V14.01,2015-04-26 05:20:00,
2015-04-26 01:25:00,44.7,40.2,29.56,NNE,26,3.0,7.0,84,0.00,,---,0.00,0.00,VWS V14.01,2015-04-26 05:25:00,
2015-04-26 01:30:00,44.7,40.2,29.56,NE,53,3.0,9.0,84,0.00,,---,0.00,0.00,VWS V14.01,2015-04-26 05:30:00,
2015-04-26 01:35:00,44.6,40.1,29.56,NNE,22,9.0,11.0,84,0.00,,---,0.00,0.00,VWS V14.01,2015-04-26 05:35:00,
2015-04-26 01:40:00,44.6,40.1,29.56,NNE,22,6.0,11.0,84,0.00,,---,0.00,0.00,VWS V14.01,2015-04-26 05:40:00,
2015-04-26 01:45:00,44.6,39.8,29.56,NNE,23,7.0,7.0,83,0.00,,---,0.00,0.00,VWS V14.01,2015-04-26 05:45:00,
2015-04-26 01:50:00,44.6,39.8,29.57,NNE,33,5.0,7.0,83,0.00,,---,0.00,0.00,VWS V14.01,2015-04-26 05:50:00,
2015-04-26 01:55:00,44.7,39.9,29.57,NNE,19,11.0,11.0,83,0.00,,---,0.00,0.00,VWS V14.01,2015-04-26 05:55:00,
2015-04-26 02:04:00,44.7,39.5,29.57,NNE,22,8.0,11.0,82,0.00,,---,0.00,0.00,VWS V14.01,2015-04-26 06:04:00,
2015-04-26 02:09:00,44.6,39.5,29.56,North,5,8.0,10.0,82,0.00,,---,0.00,0.00,VWS V14.01,2015-04-26 06:09:00,
2015-04-26 02:14:00,44.6,39.5,29.57,NNE,15,5.0,5.0,82,0.00,,---,0.00,0.00,VWS V14.01,2015-04-26 06:14:00,
2015-04-26 02:24:00,44.6,39.1,29.57,NE,36,1.0,2.0,81,0.00,,---,0.00,0.00,VWS V14.01,2015-04-26 06:24:00,
2015-04-26 02:29:00,44.6,39.1,29.57,NNE,26,4.0,5.0,81,0.00,,---,0.00,0.00,VWS V14.01,2015-04-26 06:29:00,
2015-04-26 02:34:00,44.6,38.8,29.57,NNE,24,4.0,4.0,80,0.00,,---,0.00,0.00,VWS V14.01,2015-04-26 06:34:00,
2015-04-26 02:39:00,44.6,38.8,29.57,NE,35,3.0,9.0,80,0.00,,---,0.00,0.00,VWS V14.01,2015-04-26 06:39:00,
2015-04-26 02:44:00,44.5,38.4,29.58,NNE,15,7.0,12.0,79,0.00,,---,0.00,0.00,VWS V14.01,2015-04-26 06:44:00,
2015-04-26 02:49:00,44.5,38.4,29.58,NNE,24,3.0,4.0,79,0.00,,---,0.00,0.00,VWS V14.01,2015-04-26 06:49:00,
2015-04-26 02:54:00,44.5,38.1,29.58,NNE,13,5.0,11.0,78,0.00,,---,0.00,0.00,VWS V14.01,2015-04-26 06:54:00,
2015-04-26 02:59:00,44.5,37.8,29.58,NNE,15,6.0,6.0,77,0.00,,---,0.00,0.00,VWS V14.01,2015-04-26 06:59:00,
2015-04-26 03:04:00,44.5,37.4,29.58,NNE,17,3.0,6.0,76,0.00,,---,0.00,0.00,VWS V14.01,2015-04-26 07:04:00,
2015-04-26 03:09:00,44.4,36.7,29.58,North,9,6.0,6.0,74,0.00,,---,0.00,0.00,VWS V14.01,2015-04-26 07:09:00,
2015-04-26 03:14:00,44.3,36.5,29.58,NNE,14,9.0,9.0,74,0.00,,---,0.00,0.00,VWS V14.01,2015-04-26 07:14:00,
2015-04-26 03:19:00,44.2,35.8,29.58,NNE,28,6.0,6.0,72,0.00,,---,0.00,0.00,VWS V14.01,2015-04-26 07:19:00,
2015-04-26 03:24:00,44.2,35.4,29.58,NNE,19,7.0,10.0,71,0.00,,---,0.00,0.00,VWS V14.01,2015-04-26 07:24:00,
2015-04-26 03:29:00,44.1,35.0,29.58,NNE,19,4.0,4.0,70,0.00,,---,0.00,0.00,VWS V14.01,2015-04-26 07:29:00,
2015-04-26 03:34:00,44.0,34.9,29.58,North,5,3.0,3.0,70,0.00,,---,0.00,0.00,VWS V14.01,2015-04-26 07:34:00,
2015-04-26 03:39:00,43.9,34.4,29.58,North,5,5.0,5.0,69,0.00,,---,0.00,0.00,VWS V14.01,2015-04-26 07:39:00,
2015-04-26 03:44:00,43.9,34.4,29.58,North,9,3.0,3.0,69,0.00,,---,0.00,0.00,VWS V14.01,2015-04-26 07:44:00,
2015-04-26 03:49:00,43.7,33.5,29.58,North,5,5.0,5.0,67,0.00,,---,0.00,0.00,VWS V14.01,2015-04-26 07:49:00,
2015-04-26 03:54:00,43.4,32.0,29.58,NNE,16,0.0,4.0,64,0.00,,---,0.00,0.00,VWS V14.01,2015-04-26 07:54:00,
2015-04-26 03:59:00,43.3,32.0,29.58,NNE,25,4.0,7.0,64,0.00,,---,0.00,0.00,VWS V14.01,2015-04-26 07:59:00,
2015-04-26 04:04:00,43.1,31.4,29.58,NNE,20,7.0,7.0,63,0.00,,---,0.00,0.00,VWS V14.01,2015-04-26 08:04:00,
2015-04-26 04:09:00,42.9,31.6,29.58,NE,49,4.0,4.0,64,0.00,,---,0.00,0.00,VWS V14.01,2015-04-26 08:09:00,
2015-04-26 04:14:00,42.9,32.0,29.58,NE,44,6.0,6.0,65,0.00,,---,0.00,0.00,VWS V14.01,2015-04-26 08:14:00,
2015-04-26 04:19:00,42.8,31.9,29.59,NNE,19,4.0,5.0,65,0.00,,---,0.00,0.00,VWS V14.01,2015-04-26 08:19:00,
2015-04-26 04:24:00,42.7,31.8,29.59,NNE,19,6.0,6.0,65,0.00,,---,0.00,0.00,VWS V14.01,2015-04-26 08:24:00,
2015-04-26 04:29:00,42.5,31.6,29.60,NNE,19,2.0,4.0,65,0.00,,---,0.00,0.00,VWS V14.01,2015-04-26 08:29:00,
2015-04-26 04:34:00,42.5,31.6,29.60,NNE,19,3.0,4.0,65,0.00,,---,0.00,0.00,VWS V14.01,2015-04-26 08:34:00,
2015-04-26 04:39:00,42.5,31.6,29.60,NNE,19,2.0,3.0,65,0.00,,---,0.00,0.00,VWS V14.01,2015-04-26 08:39:00,
2015-04-26 04:44:00,42.5,32.0,29.60,NNE,19,3.0,4.0,66,0.00,,---,0.00,0.00,VWS V14.01,2015-04-26 08:44:00,
2015-04-26 04:49:00,42.5,32.0,29.60,NNE,19,4.0,5.0,66,0.00,,---,0.00,0.00,VWS V14.01,2015-04-26 08:49:00,
2015-04-26 04:54:00,42.5,32.0,29.61,NNE,19,4.0,4.0,66,0.00,,---,0.00,0.00,VWS V14.01,2015-04-26 08:54:00,
2015-04-26 04:59:00,42.5,32.0,29.61,NNE,19,4.0,5.0,66,0.00,,---,0.00,0.00,VWS V14.01,2015-04-26 08:59:00,
2015-04-26 05:04:00,42.4,31.9,29.61,NNE,19,4.0,4.0,66,0.00,,---,0.00,0.00,VWS V14.01,2015-04-26 09:04:00,
2015-04-26 05:09:00,42.4,31.9,29.61,NNE,19,3.0,4.0,66,0.00,,---,0.00,0.00,VWS V14.01,2015-04-26 09:09:00,
2015-04-26 05:14:00,42.4,32.2,29.61,NNE,19,6.0,6.0,67,0.00,,---,0.00,0.00,VWS V14.01,2015-04-26 09:14:00,
2015-04-26 05:19:00,42.4,32.2,29.61,NNE,19,5.0,6.0,67,0.00,,---,0.00,0.00,VWS V14.01,2015-04-26 09:19:00,
2015-04-26 05:24:00,42.3,32.5,29.61,NNE,19,5.0,5.0,68,0.00,,---,0.00,0.00,VWS V14.01,2015-04-26 09:24:00,
2015-04-26 05:29:00,42.3,32.5,29.61,NNE,19,4.0,5.0,68,0.00,,---,0.00,0.00,VWS V14.01,2015-04-26 09:29:00,
2015-04-26 05:35:00,42.3,32.9,29.61,NNE,19,4.0,4.0,69,0.00,,---,0.00,0.00,VWS V14.01,2015-04-26 09:35:00,
2015-04-26 05:40:00,42.2,33.1,29.61,NNE,18,6.0,6.0,70,0.00,,---,0.00,0.00,VWS V14.01,2015-04-26 09:40:00,
2015-04-26 05:45:00,42.1,33.0,29.61,NNE,18,5.0,7.0,70,0.00,,---,0.00,0.00,VWS V14.01,2015-04-26 09:45:00,
2015-04-26 05:50:00,42.0,32.9,29.61,NNE,17,5.0,7.0,70,0.00,,---,0.00,0.00,VWS V14.01,2015-04-26 09:50:00,
2015-04-26 05:55:00,41.9,32.8,29.61,NNE,17,4.0,6.0,70,0.00,,---,0.00,0.00,VWS V14.01,2015-04-26 09:55:00,
2015-04-26 06:00:00,41.9,32.8,29.62,North,9,6.0,10.0,70,0.00,,---,0.00,0.00,VWS V14.01,2015-04-26 10:00:00,
2015-04-26 06:05:00,41.9,32.8,29.62,North,9,6.0,7.0,70,0.00,,---,0.00,0.00,VWS V14.01,2015-04-26 10:05:00,
2015-04-26 06:10:00,41.9,33.2,29.62,North,9,4.0,7.0,71,0.00,,---,0.00,0.00,VWS V14.01,2015-04-26 10:10:00,
2015-04-26 06:15:00,42.0,33.3,29.62,North,5,6.0,7.0,71,0.00,,---,0.00,0.00,VWS V14.01,2015-04-26 10:15:00,
2015-04-26 06:20:00,42.0,32.9,29.62,North,5,7.0,10.0,70,0.00,,---,0.00,0.00,VWS V14.01,2015-04-26 10:20:00,
2015-04-26 06:25:00,42.1,33.0,29.62,North,5,6.0,7.0,70,0.00,,---,0.00,0.00,VWS V14.01,2015-04-26 10:25:00,
2015-04-26 06:30:00,42.2,33.1,29.63,North,5,6.0,7.0,70,0.00,,---,0.00,0.00,VWS V14.01,2015-04-26 10:30:00,
2015-04-26 06:35:00,42.2,33.1,29.63,North,360,9.0,11.0,70,0.00,,---,0.00,0.00,VWS V14.01,2015-04-26 10:35:00,
2015-04-26 06:40:00,42.2,33.1,29.63,North,360,6.0,9.0,70,0.00,,---,0.00,0.00,VWS V14.01,2015-04-26 10:40:00,
2015-04-26 06:45:00,42.2,33.1,29.63,North,360,6.0,9.0,70,0.00,,---,0.00,0.00,VWS V14.01,2015-04-26 10:45:00,
2015-04-26 06:50:00,42.2,33.1,29.64,North,360,6.0,7.0,70,0.00,,---,0.00,0.00,VWS V14.01,2015-04-26 10:50:00,
2015-04-26 06:55:00,42.3,33.2,29.64,North,360,5.0,6.0,70,0.00,,---,0.00,7.00,VWS V14.01,2015-04-26 10:55:00,
2015-04-26 07:00:00,42.3,33.2,29.65,North,360,5.0,7.0,70,0.00,,---,0.00,9.00,VWS V14.01,2015-04-26 11:00:00,
2015-04-26 07:05:00,42.3,33.2,29.65,North,360,8.0,9.0,70,0.00,,---,0.00,12.00,VWS V14.01,2015-04-26 11:05:00,
2015-04-26 07:10:00,42.4,33.3,29.65,North,360,4.0,7.0,70,0.00,,---,0.00,14.00,VWS V14.01,2015-04-26 11:10:00,
2015-04-26 07:15:00,42.4,33.3,29.65,NNE,18,6.0,8.0,70,0.00,,---,0.00,16.00,VWS V14.01,2015-04-26 11:15:00,
2015-04-26 07:20:00,42.5,33.1,29.64,NNE,19,5.0,7.0,69,0.00,,---,0.00,18.00,VWS V14.01,2015-04-26 11:20:00,
2015-04-26 07:25:00,42.6,33.5,29.65,NNE,19,4.0,5.0,70,0.00,,---,0.00,26.00,VWS V14.01,2015-04-26 11:25:00,
2015-04-26 07:30:00,42.7,33.2,29.65,NNE,19,5.0,8.0,69,0.00,,---,0.00,39.00,VWS V14.01,2015-04-26 11:30:00,
2015-04-26 07:35:00,42.7,33.2,29.65,NNE,17,7.0,8.0,69,0.00,,---,0.00,44.00,VWS V14.01,2015-04-26 11:35:00,
2015-04-26 07:40:00,42.8,33.3,29.65,NNE,19,5.0,8.0,69,0.00,,---,0.00,51.00,VWS V14.01,2015-04-26 11:40:00,